INTELSAT 33E DEB, 64405

Orbit data source: Space-Track

INTELSAT 33E DEB, 64405 is space debris in GEO originally from a launch on Wed, 24 Aug 2016 UTC launched from the French Guiana (FRGUI). Debris objects in space refer to the collection of defunct objects orbiting the Earth. Examples of debris include non-operational satellites, rocket bodies, and fragments generated from explosions, collisions, or faulty payload assembly.

Not visible in the next 10 days
Identifier
64405, 2016-053AK
Orbit
GEO
Country
Flag of UnknownUnknown / ITSO
Related business
Manufacturer
Boeing/ES
Mission
Spacecraft
Bus & Motor
Unknown
Mass
Unknown
Launch date (UTC)
2016-08-24 (9 years ago)
Launch vehicle
Unknown
Launch site
French Guiana (FRGUI)
Object type
Payload
Rocket body
Debris
Shape & HBR
Unknown shape, 1.1 m
Radar Cross Section
RCS unknown

Expand to show TLE details & history
Last TLE update: 15 hours ago

TLE from 15 hours ago
0 INTELSAT 33E DEB
1 64405U 16053AK  25291.84394936 -.00000326  00000-0  00000-0 0  9991
2 64405   1.1053 101.1707 0074844  17.9342 343.5299  0.99506652  3506
Epoch: 2025-10-18T20:15Z
TLE epoch observation values (Epoch: 2025-10-18T20:15:17.224Z)
Latitude
-0°
Longitude
130.97434°
Altitude
35,699.686 km
Speed
3.089 km/s
True Right ascension
06h 49m 27s
True Declination
0° 00' 00"
Sunlit
Object was in daylight at epoch
Visualization orbit readout
Latitude
Unknown
Longitude
Unknown
Altitude
Unknown
Speed
Unknown
Apparent Right ascension
Unknown
Apparent Declination
Unknown
Sunlit
N/A
Visualization observer readout
Local Sidereal Time
05:56:51
Azimuth
Unknown
Elevation
Unknown
Doppler factor
Unknown
Orbital elements
Apogee altitude
36,320.729 km
Perigee altitude
35,686.326 km
Semi-major axis
42,381.664 km
Eccentricity
0.00748
Inclination
1.1053°
RAAN
101.1707°
Arg. of periapsis
17.9342°
True anomaly
343.28454°
Mean anomaly
343.5299°
Eccentric anomaly
343.40744°
Mean motion
0.24876 °/min
Orbital period
1,447.19 mins
BSTAR
0
Loading maneuver chart data...
Computing Atmospheric mass density...
Loading historical data...
Loading historical data...
Loading historical data...
Loading historical data...
Loading historical data...
Loading historical data...
Loading historical data...

Documentation

Showing up to 5 results
|